GW1943 Weather Reports


Display with metric or nautical units.
time (UTC)temp
F
wind
direction
speed
MPH
gust
MPH
rain 1hr
in
rain 24hr
in
rain mn
in
humidity
%
barometer
mb
20260906214232 75 80 2.0 3.0 0.00 0.00 0.00 46 1016.3
20260906213726 75 229 1.0 1.0 0.00 0.00 0.00 48 1016.4
20260906213225 75 145 1.0 3.0 0.00 0.00 0.00 45 1016.3
20260906212722 75 214 0.0 1.0 0.00 0.00 0.00 49 1016.1
20260906212219 76 222 0.0 2.0 0.00 0.00 0.00 47 1016.4
20260906211713 76 8 3.0 3.0 0.00 0.00 0.00 47 1016.2
20260906211209 75 220 0.0 2.0 0.00 0.00 0.00 47 1016.3
20260906210704 77 214 0.0 2.0 0.00 0.00 0.00 48 1016.3
20260906210203 75 210 1.0 2.0 0.00 0.00 0.00 48 1016.3
20260906205658 75 222 0.0 0.0 0.00 0.00 0.00 50 1016.3
20260906205154 74 210 2.0 3.0 0.00 0.00 0.00 49 1016.3
20260906204649 74 42 1.0 3.0 0.00 0.00 0.00 51 1016.5
20260906204149 76 20 1.0 2.0 0.00 0.00 0.00 50 1016.3
20260906203648 75 223 1.0 2.0 0.00 0.00 0.00 51 1016.2
20260906203144 74 270 2.0 2.0 0.00 0.00 0.00 53 1016.4
20260906202641 74 38 2.0 3.0 0.00 0.00 0.00 51 1016.5
20260906202139 75 212 0.0 1.0 0.00 0.00 0.00 53 1016.4
20260906201635 75 215 0.0 0.0 0.00 0.00 0.00 53 1016.5
20260906201133 74 214 0.0 0.0 0.00 0.00 0.00 54 1016.4
20260906200631 72 223 0.0 1.0 0.00 0.00 0.00 56 1016.5
20260906200126 72 41 3.0 3.0 0.00 0.00 0.00 54 1016.6
20260906195621 72 0 1.0 2.0 0.00 0.00 0.00 55 1016.6
20260906195118 70 23 0.0 3.0 0.00 0.00 0.00 60 1016.7
20260906194613 71 77 1.0 2.0 0.00 0.00 0.00 56 1016.7
20260906194108 70 208 0.0 2.0 0.00 0.00 0.00 58 1016.9
20260906193603 70 212 0.0 0.0 0.00 0.00 0.00 61 1016.9
20260906193058 69 216 0.0 1.0 0.00 0.00 0.00 60 1016.9
20260906192554 68 203 0.0 3.0 0.00 0.00 0.00 63 1017.0
20260906192053 68 228 1.0 2.0 0.00 0.00 0.00 63 1016.8
20260906191548 68 11 3.0 5.0 0.00 0.00 0.00 61 1017.2
20260906191047 67 219 0.0 1.0 0.00 0.00 0.00 67 1017.2
20260906190547 67 53 2.0 2.0 0.00 0.00 0.00 64 1017.3
20260906190042 67 223 0.0 3.0 0.00 0.00 0.00 64 1017.2
20260906185541 67 211 0.0 2.0 0.00 0.00 0.00 67 1017.3
20260906185039 66 218 0.0 2.0 0.00 0.00 0.00 67 1017.3
20260906184535 66 214 0.0 1.0 0.00 0.00 0.00 72 1017.2
20260906184030 65 216 0.0 0.0 0.00 0.00 0.00 72 1017.1
20260906183526 65 214 0.0 1.0 0.00 0.00 0.00 72 1017.3
20260906183022 64 206 0.0 1.0 0.00 0.00 0.00 72 1017.3
20260906182517 64 215 0.0 1.0 0.00 0.00 0.00 73 1017.1
20260906182013 64 216 0.0 3.0 0.00 0.00 0.00 73 1017.1
20260906181508 64 312 3.0 5.0 0.00 0.00 0.00 73 1017.0
20260906181004 63 245 0.0 1.0 0.00 0.00 0.00 75 1016.9
20260906180458 63 208 1.0 5.0 0.00 0.00 0.00 76 1017.3
20260906175956 62 212 1.0 2.0 0.00 0.00 0.00 77 1017.0
20260906175451 62 16 3.0 5.0 0.00 0.00 0.00 77 1017.2
20260906174950 62 47 1.0 2.0 0.00 0.00 0.00 78 1017.1
20260906174449 61 218 1.0 2.0 0.00 0.00 0.00 79 1017.3
20260906173944 61 199 0.0 1.0 0.00 0.00 0.00 80 1017.4
20260906173440 61 214 0.0 1.0 0.00 0.00 0.00 80 1017.7
20260906172939 60 199 0.0 2.0 0.00 0.00 0.00 81 1017.5
20260906172436 61 220 0.0 3.0 0.00 0.00 0.00 81 1017.6
20260906171931 60 213 0.0 0.0 0.00 0.00 0.00 83 1017.6
20260906171425 60 198 0.0 0.0 0.00 0.00 0.00 83 1017.7
20260906170921 60 215 0.0 2.0 0.00 0.00 0.00 84 1017.8
20260906170417 59 214 0.0 1.0 0.00 0.00 0.00 85 1017.6
20260906165914 59 217 0.0 2.0 0.00 0.00 0.00 85 1017.7
20260906165413 59 214 0.0 0.0 0.00 0.00 0.00 87 1017.7
20260906164908 58 201 0.0 0.0 0.00 0.00 0.00 87 1017.7
20260906164406 58 227 0.0 0.0 0.00 0.00 0.00 89 1017.9
20260906163903 58 219 0.0 0.0 0.00 0.00 0.00 89 1017.8
20260906163359 57 224 0.0 0.0 0.00 0.00 0.00 91 1017.8
20260906162857 57 212 0.0 0.0 0.00 0.00 0.00 90 1017.7
20260906162355 56 195 0.0 0.0 0.00 0.00 0.00 92 1017.6
20260906161851 56 216 0.0 0.0 0.00 0.00 0.00 93 1017.8
20260906161350 56 208 0.0 0.0 0.00 0.00 0.00 93 1017.8
20260906160849 55 209 0.0 1.0 0.00 0.00 0.00 96 1017.8
20260906160343 55 195 0.0 0.0 0.00 0.00 0.00 98 1017.8
20260906155841 54 207 0.0 0.0 0.00 0.00 0.00 99 1017.7
20260906155335 54 213 0.0 0.0 0.00 0.00 0.00 99 1017.6
20260906154832 54 214 0.0 0.0 0.00 0.00 0.00 99 1017.3
20260906154326 54 212 0.0 1.0 0.00 0.00 0.00 99 1017.6
20260906153825 53 211 0.0 0.0 0.00 0.00 0.00 99 1017.5
20260906153324 53 211 0.0 0.0 0.00 0.00 0.00 99 1017.4
20260906152819 53 211 0.0 0.0 0.00 0.00 0.00 99 1017.6
20260906152314 53 211 0.0 0.0 0.00 0.00 0.00 99 1017.4
20260906151814 53 211 0.0 0.0 0.00 0.00 0.00 99 1017.5
20260906151309 52 213 0.0 0.0 0.00 0.00 0.00 99 1017.2
20260906150805 52 188 0.0 0.0 0.00 0.00 0.00 99 1017.3
20260906150300 52 188 0.0 0.0 0.00 0.00 0.00 99 1017.2
20260906145759 52 188 0.0 0.0 0.00 0.00 0.00 99 1017.4
20260906145258 51 188 0.0 0.0 0.00 0.00 0.00 99 1017.4
20260906144754 51 188 0.0 0.0 0.00 0.00 0.00 99 1017.5
20260906144248 51 188 0.0 0.0 0.00 0.00 0.00 99 1017.5
20260906143747 51 188 0.0 0.0 0.00 0.00 0.00 99 1017.5
20260906143245 51 188 0.0 0.0 0.00 0.00 0.00 99 1017.4
20260906142744 51 188 0.0 0.0 0.00 0.00 0.00 99 1017.4
20260906142240 51 188 0.0 0.0 0.00 0.00 0.00 99 1017.5
20260906141738 50 188 0.0 0.0 0.00 0.00 0.00 99 1017.5
20260906141233 50 188 0.0 0.0 0.00 0.00 0.00 99 1017.4
20260906140732 51 188 0.0 0.0 0.00 0.00 0.00 99 1017.5
20260906140227 51 188 0.0 0.0 0.00 0.00 0.00 99 1017.4
20260906135724 51 188 0.0 0.0 0.00 0.00 0.00 99 1017.3
20260906135221 50 188 0.0 0.0 0.00 0.00 0.00 99 1017.2
20260906134716 51 188 0.0 0.0 0.00 0.00 0.00 98 1017.2
20260906134211 51 188 0.0 0.0 0.00 0.00 0.00 99 1017.3
20260906133707 51 188 0.0 0.0 0.00 0.00 0.00 98 1017.1
20260906133202 51 188 0.0 0.0 0.00 0.00 0.00 99 1017.2
20260906132657 51 188 0.0 0.0 0.00 0.00 0.00 98 1017.2
20260906132153 51 188 0.0 0.0 0.00 0.00 0.00 98 1017.3
20260906131648 51 188 0.0 0.0 0.00 0.00 0.00 98 1017.2
20260906131143 51 188 0.0 0.0 0.00 0.00 0.00 98 1017.2
20260906130638 51 188 0.0 0.0 0.00 0.00 0.00 98 1017.3
20260906130133 51 188 0.0 0.0 0.00 0.00 0.00 98 1017.2
20260906125631 51 188 0.0 0.0 0.00 0.00 0.00 98 1017.5
20260906125130 51 188 0.0 0.0 0.00 0.00 0.00 98 1017.4
20260906124626 51 188 0.0 0.0 0.00 0.00 0.00 98 1017.4
20260906124121 51 188 0.0 0.0 0.00 0.00 0.00 97 1017.2
20260906123620 51 188 0.0 0.0 0.00 0.00 0.00 97 1017.2
20260906123115 51 188 0.0 0.0 0.00 0.00 0.00 97 1017.4
20260906122614 52 188 0.0 0.0 0.00 0.00 0.00 97 1017.2
20260906122110 52 188 0.0 0.0 0.00 0.00 0.00 97 1017.3
20260906121606 52 188 0.0 0.0 0.00 0.00 0.00 97 1017.2
20260906121102 52 188 0.0 0.0 0.00 0.00 0.00 97 1017.2
20260906120557 52 188 0.0 0.0 0.00 0.00 0.00 97 1017.4
20260906120055 52 188 0.0 0.0 0.00 0.00 0.00 97 1017.2
20260906115555 52 187 0.0 0.0 0.00 0.00 0.00 97 1017.4
20260906115050 52 191 0.0 0.0 0.00 0.00 0.00 98 1017.6
20260906114550 52 192 0.0 0.0 0.00 0.00 0.00 98 1017.6
20260906114045 52 192 0.0 0.0 0.00 0.00 0.00 98 1017.5
20260906113544 52 192 0.0 0.0 0.00 0.00 0.00 98 1017.6
20260906113039 52 192 0.0 0.0 0.00 0.00 0.00 98 1017.4
20260906112534 52 192 0.0 0.0 0.00 0.00 0.00 98 1017.7
20260906112031 52 192 0.0 0.0 0.00 0.00 0.00 97 1017.6
20260906111530 53 192 0.0 0.0 0.00 0.00 0.00 97 1017.5
20260906111025 53 192 0.0 0.0 0.00 0.00 0.00 97 1017.4
20260906110520 53 192 0.0 0.0 0.00 0.00 0.00 97 1017.6
20260906110019 53 192 0.0 0.0 0.00 0.00 0.00 97 1017.5
20260906105514 53 192 0.0 0.0 0.00 0.00 0.00 97 1017.4
20260906105010 53 192 0.0 0.0 0.00 0.00 0.00 97 1017.5
20260906104508 53 192 0.0 0.0 0.00 0.00 0.00 97 1017.6
20260906104003 53 192 0.0 0.0 0.00 0.00 0.00 97 1017.6
20260906103501 54 192 0.0 0.0 0.00 0.00 0.00 97 1017.4
20260906102956 54 192 0.0 0.0 0.00 0.00 0.00 97 1017.3
20260906102456 54 193 0.0 0.0 0.00 0.00 0.00 97 1017.4
20260906101951 54 193 0.0 0.0 0.00 0.00 0.00 97 1017.5
20260906101446 54 193 0.0 0.0 0.00 0.00 0.00 97 1017.5
20260906100941 54 193 0.0 0.0 0.00 0.00 0.00 97 1017.5
20260906100436 54 193 0.0 0.0 0.00 0.00 0.00 97 1017.5
20260906095930 54 194 0.0 0.0 0.00 0.00 0.00 97 1017.4
20260906095426 54 194 0.0 0.0 0.00 0.00 0.00 97 1017.3
20260906094920 53 194 0.0 0.0 0.00 0.00 0.00 97 1017.6
20260906094415 53 194 0.0 0.0 0.00 0.00 0.00 97 1017.2
20260906093911 54 194 0.0 0.0 0.00 0.00 0.00 97 1017.5
20260906093407 54 194 0.0 0.0 0.00 0.00 0.00 96 1017.5
20260906092901 54 194 0.0 0.0 0.00 0.00 0.00 96 1017.5
20260906092401 54 193 0.0 0.0 0.00 0.00 0.00 96 1017.3
20260906091856 53 203 0.0 0.0 0.00 0.00 0.00 96 1017.5
20260906091352 53 203 0.0 0.0 0.00 0.00 0.00 96 1017.5
20260906090849 53 203 0.0 0.0 0.00 0.00 0.00 96 1017.5
20260906090348 53 203 0.0 0.0 0.00 0.00 0.00 95 1017.0
20260906085842 53 203 0.0 0.0 0.00 0.00 0.00 95 1017.5
20260906085342 53 203 0.0 0.0 0.00 0.00 0.00 95 1017.4
20260906084837 54 203 0.0 0.0 0.00 0.00 0.00 94 1017.3
20260906084337 54 203 0.0 0.0 0.00 0.00 0.00 94 1017.7
20260906083831 54 203 0.0 0.0 0.00 0.00 0.00 94 1017.6
20260906083326 54 203 0.0 0.0 0.00 0.00 0.00 94 1017.6
20260906082820 54 203 0.0 0.0 0.00 0.00 0.00 94 1017.5
20260906082316 54 203 0.0 0.0 0.00 0.00 0.00 94 1017.5
20260906081811 54 203 0.0 0.0 0.00 0.00 0.00 93 1017.5
20260906081307 55 203 0.0 0.0 0.00 0.00 0.00 93 1017.6
20260906080803 55 203 0.0 0.0 0.00 0.00 0.00 93 1017.6
20260906080259 55 203 0.0 0.0 0.00 0.00 0.00 92 1017.6
20260906075759 55 203 0.0 0.0 0.00 0.00 0.00 92 1017.5
20260906075253 55 203 0.0 0.0 0.00 0.00 0.00 91 1017.5
20260906074749 55 203 0.0 0.0 0.00 0.00 0.00 91 1017.6
20260906074248 54 210 0.0 0.0 0.00 0.00 0.00 92 1017.6
20260906073747 54 210 0.0 0.0 0.00 0.00 0.00 92 1017.7
20260906073242 54 210 0.0 0.0 0.00 0.00 0.00 92 1017.6
20260906072738 54 210 0.0 0.0 0.00 0.00 0.00 92 1017.8
20260906072234 54 210 0.0 0.0 0.00 0.00 0.00 92 1017.5
20260906071729 55 210 0.0 0.0 0.00 0.00 0.00 91 1017.8
20260906071229 55 210 0.0 0.0 0.00 0.00 0.00 91 1017.5
20260906070726 55 210 0.0 0.0 0.00 0.00 0.00 90 1017.7
20260906070221 55 210 0.0 0.0 0.00 0.00 0.00 90 1017.7
20260906065721 55 210 0.0 0.0 0.00 0.00 0.00 90 1017.9
20260906065216 55 210 0.0 0.0 0.00 0.00 0.00 89 1018.0
20260906064712 56 210 0.0 0.0 0.00 0.00 0.00 88 1017.7
20260906064207 56 210 0.0 0.0 0.00 0.00 0.00 88 1017.8
20260906063702 56 210 0.0 0.0 0.00 0.00 0.00 88 1017.8
20260906063158 56 210 0.0 0.0 0.00 0.00 0.00 87 1018.0
20260906062653 56 211 0.0 0.0 0.00 0.00 0.00 87 1017.6
20260906062152 56 216 0.0 0.0 0.00 0.00 0.00 87 1017.8
20260906061648 56 217 0.0 0.0 0.00 0.00 0.00 87 1017.7
20260906061143 57 217 0.0 0.0 0.00 0.00 0.00 86 1017.8
20260906060639 57 218 0.0 0.0 0.00 0.00 0.00 86 1017.9
20260906060136 57 218 0.0 0.0 0.00 0.00 0.00 86 1017.9
20260906055632 57 218 0.0 0.0 0.00 0.00 0.00 86 1018.0
20260906055127 57 218 0.0 0.0 0.00 0.00 0.00 87 1017.9
20260906054622 57 218 0.0 0.0 0.00 0.00 0.00 86 1018.1
20260906054117 57 218 0.0 0.0 0.00 0.00 0.00 85 1018.0
20260906053614 58 218 0.0 0.0 0.00 0.00 0.00 85 1017.9
20260906053108 58 219 0.0 0.0 0.00 0.00 0.00 85 1017.9
20260906052604 58 219 0.0 0.0 0.00 0.00 0.00 84 1017.8
20260906052101 58 219 0.0 0.0 0.00 0.00 0.00 84 1018.0
20260906051556 58 219 0.0 0.0 0.00 0.00 0.00 84 1018.0
20260906051051 58 219 0.0 0.0 0.00 0.00 0.00 84 1018.0
20260906050546 58 219 0.0 0.0 0.00 0.00 0.00 84 1018.1
20260906050042 58 219 0.0 0.0 0.00 0.00 0.00 84 1018.0
20260906045539 58 219 0.0 0.0 0.00 0.00 0.00 84 1017.9
20260906045036 58 219 0.0 0.0 0.00 0.00 0.00 84 1018.0
20260906044531 58 219 0.0 0.0 0.00 0.00 0.00 84 1018.1
20260906044026 59 219 0.0 0.0 0.00 0.00 0.00 84 1018.3
20260906043522 59 219 0.0 0.0 0.00 0.00 0.00 83 1018.2
20260906043018 59 219 0.0 0.0 0.00 0.00 0.00 82 1018.2
20260906042517 59 219 0.0 0.0 0.00 0.00 0.00 82 1018.2
20260906042011 60 219 0.0 0.0 0.00 0.00 0.00 81 1017.9
20260906041508 60 219 0.0 0.0 0.00 0.00 0.00 80 1018.2
20260906041007 60 219 0.0 0.0 0.00 0.00 0.00 80 1018.2
20260906040502 60 219 0.0 0.0 0.00 0.00 0.00 79 1018.4
20260906035957 60 219 0.0 0.0 0.00 0.00 0.00 79 1018.4
20260906035453 61 220 0.0 0.0 0.00 0.00 0.00 79 1018.3
20260906034948 61 220 0.0 0.0 0.00 0.00 0.00 79 1018.3
20260906034443 61 220 0.0 0.0 0.00 0.00 0.00 79 1018.4
20260906033939 61 220 0.0 0.0 0.00 0.00 0.00 79 1018.4
20260906033438 61 220 0.0 0.0 0.00 0.00 0.00 78 1018.1
20260906032935 62 220 0.0 0.0 0.00 0.00 0.00 77 1018.2
20260906032431 62 220 0.0 0.0 0.00 0.00 0.00 76 1018.2
20260906031924 62 220 0.0 0.0 0.00 0.00 0.00 75 1018.3
20260906031420 63 220 0.0 0.0 0.00 0.00 0.00 76 1018.0
20260906030915 63 220 0.0 0.0 0.00 0.00 0.00 75 1018.1
20260906030410 64 220 0.0 0.0 0.00 0.00 0.00 73 1017.9
20260906025904 64 220 0.0 0.0 0.00 0.00 0.00 72 1017.8
20260906025359 64 220 0.0 0.0 0.00 0.00 0.00 72 1017.9
20260906024857 64 220 0.0 0.0 0.00 0.00 0.00 71 1018.1
20260906024357 64 220 0.0 0.0 0.00 0.00 0.00 70 1018.1
20260906023852 64 220 0.0 0.0 0.00 0.00 0.00 69 1017.8
20260906023348 65 220 0.0 0.0 0.00 0.00 0.00 68 1018.0
20260906022843 65 220 0.0 0.0 0.00 0.00 0.00 68 1017.9
20260906022338 66 220 0.0 0.0 0.00 0.00 0.00 66 1017.8
20260906021834 66 220 0.0 0.0 0.00 0.00 0.00 65 1018.0
20260906021333 66 220 0.0 0.0 0.00 0.00 0.00 64 1017.9
20260906020828 67 221 0.0 0.0 0.00 0.00 0.00 64 1018.0
20260906020327 68 221 0.0 0.0 0.00 0.00 0.00 63 1017.9
20260906015822 68 221 0.0 0.0 0.00 0.00 0.00 61 1017.9
20260906015320 69 223 0.0 0.0 0.00 0.00 0.00 59 1017.9
20260906014815 69 223 0.0 0.0 0.00 0.00 0.00 59 1017.9
20260906014310 70 229 0.0 0.0 0.00 0.00 0.00 57 1017.8
20260906013806 71 223 0.0 1.0 0.00 0.00 0.00 57 1017.8
20260906013301 72 216 0.0 0.0 0.00 0.00 0.00 55 1017.8
20260906012757 72 225 0.0 0.0 0.00 0.00 0.00 53 1017.4
20260906012251 73 223 0.0 1.0 0.00 0.00 0.00 55 1017.7
20260906011747 73 94 1.0 2.0 0.00 0.00 0.00 52 1017.6
20260906011246 73 220 1.0 1.0 0.00 0.00 0.00 52 1017.7
20260906010742 73 227 0.0 1.0 0.00 0.00 0.00 53 1017.6
20260906010238 73 224 0.0 1.0 0.00 0.00 0.00 51 1017.7
20260906005733 73 45 0.0 1.0 0.00 0.00 0.00 51 1017.7
20260906005232 73 231 0.0 1.0 0.00 0.00 0.00 52 1017.8
20260906004731 72 291 2.0 2.0 0.00 0.00 0.00 54 1017.8
20260906004221 71 224 0.0 2.0 0.00 0.00 0.00 57 1017.7
20260906003716 72 226 0.0 2.0 0.00 0.00 0.00 55 1017.8
20260906003212 71 236 0.0 0.0 0.00 0.00 0.00 58 1017.7
20260906002712 71 232 1.0 2.0 0.00 0.00 0.00 56 1017.6
20260906002207 71 241 0.0 0.0 0.00 0.00 0.00 55 1017.6
20260906001702 71 228 0.0 1.0 0.00 0.00 0.00 55 1017.7
20260906001201 70 224 0.0 1.0 0.00 0.00 0.00 55 1017.5
20260906000657 72 238 0.0 3.0 0.00 0.00 0.00 54 1017.4
20260906000152 73 263 2.0 3.0 0.00 0.00 0.00 51 1017.5
20260905235651 74 232 2.0 3.0 0.00 0.00 0.00 51 1017.6
20260905235146 74 240 1.0 3.0 0.00 0.00 0.00 55 1017.6
20260905234641 74 239 1.0 3.0 0.00 0.00 0.00 53 1017.5
20260905234137 75 221 0.0 1.0 0.00 0.00 0.00 47 1017.7
20260905233632 74 235 0.0 0.0 0.00 0.00 0.00 52 1017.7
20260905233126 74 234 1.0 1.0 0.00 0.00 0.00 51 1017.6
20260905232622 75 228 0.0 1.0 0.00 0.00 0.00 52 1017.7
20260905232117 74 224 1.0 2.0 0.00 0.00 0.00 49 1017.8
20260905231617 76 252 1.0 2.0 0.00 0.00 0.00 50 1017.8
20260905231114 77 234 0.0 1.0 0.00 0.00 0.00 49 1017.8
20260905230609 76 248 0.0 1.0 0.00 0.00 0.00 50 1017.9
20260905230106 76 228 0.0 1.0 0.00 0.00 0.00 53 1018.0
20260905225601 74 203 0.0 1.0 0.00 0.00 0.00 55 1017.9
20260905225056 74 225 0.0 1.0 0.00 0.00 0.00 55 1018.2
20260905224555 73 220 0.0 1.0 0.00 0.00 0.00 54 1018.0
20260905224055 73 227 0.0 2.0 0.00 0.00 0.00 56 1018.0
20260905223553 73 231 1.0 2.0 0.00 0.00 0.00 56 1018.2
20260905223049 73 230 0.0 0.0 0.00 0.00 0.00 56 1018.0
20260905222548 71 253 2.0 2.0 0.00 0.00 0.00 58 1018.3
20260905222044 70 233 0.0 1.0 0.00 0.00 0.00 61 1018.3
20260905221540 70 225 1.0 2.0 0.00 0.00 0.00 62 1018.3
20260905221036 68 225 0.0 2.0 0.00 0.00 0.00 66 1018.2
20260905220531 67 232 1.0 3.0 0.00 0.00 0.00 64 1018.5
20260905220028 67 236 1.0 3.0 0.00 0.00 0.00 65 1018.6
20260905215526 66 235 0.0 3.0 0.00 0.00 0.00 67 1018.5
20260905215023 66 227 0.0 2.0 0.00 0.00 0.00 68 1018.6